GFSMW_500_rhum_081.txt.gz
RH
87 72 69 71 82 92 95 76 82 92 91 86 80 77 72 63 56 46 40 35 25 29 32 34 41 38 36 33 28 25 27 24 18 11 8 8 10 11 9 9 11 14 14
92 93 94 76 74 92 93 85 83 86 89 83 80 79 72 64 57 45 33 26 23 35 44 44 41 36 30 26 22 28 31 21 12 8 10 13 12 10 10 11 13 13 11
93 97 97 97 93 89 78 70 70 76 76 71 72 69 51 39 33 31 32 37 37 31 23 20 20 19 19 22 29 35 30 13 8 10 14 18 12 9 11 13 14 12 8
100 100 98 97 98 96 92 76 69 65 62 59 51 45 41 36 34 33 36 35 29 25 24 23 22 22 22 28 32 32 11 8 14 15 14 11 9 8 11 14 10 8 5
88 98 100 98 97 96 96 97 94 67 52 45 40 38 36 33 32 31 30 28 27 26 26 26 26 26 29 31 43 44 17 20 20 17 11 10 10 13 15 10 6 4 7
89 96 100 96 96 99 99 96 96 96 93 78 61 50 46 42 39 35 33 31 30 30 30 29 30 29 34 41 51 30 17 19 15 12 10 9 12 14 9 6 4 5 8
99 97 97 100 100 97 97 96 94 92 89 88 87 88 88 84 75 63 51 49 43 38 35 33 34 37 47 54 22 18 18 19 15 10 10 11 15 10 8 4 4 6 8
93 98 98 99 93 81 77 73 69 70 70 72 77 80 82 83 82 76 66 53 45 41 41 47 53 58 34 16 20 21 19 18 11 11 11 14 11 9 5 5 6 6 10
62 66 92 97 91 76 68 73 75 67 63 68 70 71 74 78 79 73 69 68 56 52 53 63 37 16 20 22 22 20 19 13 11 12 13 12 10 6 6 6 7 11 12
22 34 47 60 80 63 61 64 64 68 70 65 63 62 63 67 72 76 76 74 69 67 64 45 20 28 26 26 29 23 15 12 12 14 14 12 8 6 8 9 14 16 15
17 20 21 22 40 63 68 64 68 73 71 69 66 65 68 68 72 74 73 71 64 56 40 25 26 26 35 34 21 14 13 13 14 16 15 10 8 9 11 15 18 18 21
32 26 21 27 29 28 53 71 72 78 84 80 73 71 73 80 81 75 65 51 34 26 20 21 30 38 30 24 19 17 15 14 15 17 12 10 12 15 17 20 22 22 22
33 32 37 42 34 36 49 58 63 73 83 84 76 78 78 82 83 77 46 26 22 23 31 38 40 32 36 30 22 17 15 15 19 16 13 14 18 22 24 24 23 23 17
52 58 57 58 60 54 54 60 76 80 85 87 78 77 80 82 82 73 51 29 29 34 41 44 39 34 38 30 18 15 18 20 19 16 16 20 24 27 25 26 25 17 16
60 65 54 53 55 59 64 67 64 73 77 83 79 76 85 68 55 43 39 38 37 39 43 41 37 36 29 18 18 22 22 20 18 18 23 28 30 29 29 27 18 16 17
56 61 60 50 50 58 63 76 96 84 95 97 89 73 75 78 69 59 57 66 62 58 61 46 47 26 18 22 24 26 25 22 24 28 32 33 33 32 30 23 18 18 19
75 65 77 74 63 57 66 72 94 99 97 97 92 85 82 83 79 83 87 83 76 84 92 50 21 22 28 29 29 29 31 33 34 39 39 36 35 34 30 24 22 23 24
80 86 87 93 88 85 79 81 88 99 96 91 96 93 92 92 89 74 73 91 78 36 27 30 34 38 36 34 36 37 38 41 46 43 38 38 39 38 36 35 35 33 32
70 83 89 96 100 100 100 96 96 98 98 99 90 66 43 38 53 48 28 26 30 38 42 48 45 42 42 42 43 46 49 50 44 42 42 42 44 43 46 50 50 48 46
69 68 72 76 97 98 100 99 98 89 83 51 55 60 31 52 62 57 56 59 58 55 51 49 53 52 50 53 56 58 58 51 48 47 48 50 54 57 59 61 62 61 63
56 61 62 81 94 96 96 98 99 98 67 65 53 43 53 64 66 79 75 65 59 62 62 59 63 62 64 65 68 72 68 56 53 57 60 64 64 63 65 66 64 67 71
65 64 67 63 55 51 50 44 41 53 80 66 66 73 68 69 69 66 64 65 67 67 66 67 69 72 73 75 82 78 63 61 66 74 76 75 72 72 70 66 65 68 74
62 67 69 57 52 47 44 48 56 75 89 82 77 74 69 63 56 51 50 52 56 60 68 77 78 79 86 90 79 64 69 80 87 88 86 81 80 77 74 72 68 70 76
57 53 49 46 49 72 81 90 87 87 84 78 72 67 63 59 55 55 60 68 72 74 76 78 82 84 80 76 69 74 80 90 92 99 92 86 85 77 75 72 67 69 75
62 70 57 59 69 67 82 88 100 99 93 90 88 81 74 71 69 65 66 72 77 76 74 74 73 72 76 84 86 85 87 94 100 100 93 94 91 80 78 72 70 71 77
62 59 59 62 68 93 100 100 100 100 99 100 100 96 88 83 82 82 82 79 79 78 77 75 75 66 60 64 67 74 90 100 100 100 97 96 89 84 76 71 70 70 69

GFSMW_500_rhum_084.txt.gz
RH
85 84 94 58 44 45 71 91 95 96 91 68 63 63 76 74 69 70 66 62 53 45 38 35 26 26 38 42 42 36 24 21 22 28 32 21 10 10 13 15 12 10 10
75 82 95 74 57 50 66 82 96 95 96 90 70 70 78 79 73 70 67 64 60 54 44 31 25 29 37 24 20 20 20 20 26 31 35 12 11 13 14 13 10 10 12
78 76 95 96 77 67 70 71 69 96 96 97 94 82 80 82 77 74 71 67 57 44 35 32 38 37 28 23 22 22 21 23 29 34 43 18 17 17 14 11 11 12 13
99 84 97 97 96 93 85 78 73 66 78 88 96 94 77 82 82 72 69 58 44 37 34 36 34 28 26 25 24 25 24 28 33 41 40 16 20 17 14 10 12 13 13
86 87 96 97 96 96 97 97 93 92 86 92 85 75 79 83 75 67 57 45 41 39 36 32 30 28 28 28 28 28 30 34 41 47 20 16 16 15 12 10 12 14 10
94 99 90 94 90 92 99 98 97 96 95 97 93 82 72 66 60 53 46 40 38 35 33 32 34 34 33 34 33 32 34 40 55 20 17 17 17 12 11 12 14 10 7
92 94 83 88 97 100 98 97 98 97 97 96 94 94 88 71 60 51 44 40 41 45 59 80 74 52 44 39 37 39 53 52 18 18 18 18 15 11 12 13 12 9 5
98 99 100 98 97 99 94 91 86 92 87 89 94 98 97 95 94 78 75 82 87 87 76 60 52 48 45 42 47 56 42 17 20 20 26 22 14 12 13 14 11 6 7
80 97 93 98 100 98 99 99 100 99 98 90 85 82 77 77 76 75 74 75 77 78 76 72 71 70 64 55 62 49 20 24 24 30 24 15 13 13 14 13 8 6 8
64 67 92 96 98 99 99 96 96 96 89 82 77 73 73 75 75 74 75 74 75 75 76 75 73 70 68 66 54 24 24 29 35 27 15 13 13 14 16 11 8 9 12
33 39 44 55 75 95 95 98 97 96 86 72 68 76 76 74 70 71 72 73 72 71 73 75 74 71 60 47 24 23 32 35 29 19 16 14 14 17 14 10 11 15 16
23 19 18 18 19 25 35 46 62 92 92 80 74 70 71 72 71 69 68 68 70 75 77 74 65 47 30 23 23 37 35 34 28 20 15 14 18 18 12 13 18 20 22
29 29 24 22 19 19 23 24 24 29 37 53 65 71 71 76 80 75 70 68 70 76 78 62 34 25 23 32 41 40 39 34 34 19 15 19 21 17 15 19 22 26 24
30 26 26 24 27 29 25 26 27 27 28 38 48 54 61 65 68 70 72 70 70 74 79 76 50 29 30 39 45 45 38 33 24 17 23 24 22 20 22 26 30 28 27
29 27 23 24 21 29 38 40 39 39 46 57 63 62 63 61 63 64 69 73 73 74 70 60 50 41 41 42 37 36 35 51 22 26 25 23 24 29 32 34 31 30 28
35 32 35 37 40 44 51 51 52 53 56 61 65 67 73 78 86 80 77 77 69 52 59 53 51 50 52 62 67 67 45 30 39 28 27 28 36 38 38 35 34 33 28
51 53 57 57 50 55 58 51 50 53 56 63 81 94 85 95 96 88 78 78 75 71 78 79 75 79 80 86 79 48 59 36 33 33 37 41 45 42 38 37 37 37 37
56 56 60 68 75 83 83 74 68 56 58 67 77 87 100 97 98 99 93 84 84 84 86 78 66 83 78 72 80 53 45 42 42 44 46 53 48 41 40 40 42 45 48
50 60 65 74 71 92 94 100 100 99 90 80 79 83 94 95 95 76 60 81 68 63 78 79 58 54 58 56 53 52 50 49 49 53 56 48 45 45 45 50 52 55 58
63 68 73 71 86 82 84 92 96 100 100 100 97 96 94 99 97 75 59 60 75 62 64 68 70 70 64 64 63 58 55 59 60 58 54 52 50 51 56 60 60 61 60
64 64 66 67 67 65 71 97 100 100 100 99 100 97 94 90 74 60 71 76 94 97 96 86 82 82 70 69 67 65 68 69 71 70 61 57 59 66 70 70 68 63 60
60 61 66 71 68 71 85 79 64 68 72 80 97 99 97 94 93 85 95 97 97 97 98 97 96 80 73 74 75 77 79 81 85 72 63 67 77 81 80 75 69 64 62
59 62 66 66 67 68 59 52 46 44 51 67 88 99 98 98 88 84 82 80 78 82 81 79 77 81 82 88 90 89 91 92 76 68 74 84 86 91 86 74 72 68 64
54 54 58 64 69 66 58 56 78 88 99 100 100 95 91 87 85 80 70 64 65 67 69 76 86 89 94 94 97 98 92 76 72 80 84 92 95 92 81 80 78 73 68
61 59 60 57 51 50 57 77 77 78 81 90 98 99 94 84 81 76 72 67 67 77 85 92 92 94 96 100 92 74 77 81 88 93 93 96 98 88 87 86 84 80 73
79 77 83 93 99 84 97 89 92 98 99 100 100 100 99 96 90 88 84 80 81 82 81 79 77 73 70 68 64 61 65 69 71 73 86 97 91 89 90 93 91 86 80

GFSMW_500_rhum_087.txt.gz
RH
19 29 79 69 67 79 40 42 44 69 89 95 79 63 59 56 45 36 41 53 67 68 64 61 54 48 42 38 24 26 38 25 21 22 21 21 27 30 41 24 18 19 19
19 18 66 88 84 92 73 42 42 63 83 82 92 92 83 58 47 50 56 68 72 72 70 67 62 58 48 33 29 38 32 24 23 23 24 25 28 37 42 22 18 18 17
14 35 74 84 95 94 95 72 48 50 47 62 82 90 97 91 74 65 56 73 77 74 77 75 69 55 39 32 36 33 29 27 26 26 28 30 34 39 42 18 15 16 15
20 31 62 79 84 93 94 95 76 69 66 73 90 98 98 94 93 94 78 83 87 83 80 75 66 44 38 36 33 31 29 29 29 30 32 33 36 53 28 16 14 14 12
48 35 37 70 87 95 95 96 92 76 68 66 76 77 97 96 90 96 94 78 76 80 76 67 55 45 43 39 35 33 42 36 37 36 35 38 54 34 17 18 16 14 12
62 82 65 54 83 93 92 95 96 90 86 85 80 74 72 79 82 90 88 80 76 80 69 59 50 45 42 38 40 52 73 50 38 37 40 54 37 17 18 20 22 15 12
59 74 86 59 88 100 96 96 97 96 95 94 94 95 91 93 95 96 95 90 83 74 65 57 50 46 42 48 62 83 59 43 41 41 53 49 18 20 25 26 20 13 12
53 63 82 66 56 84 91 96 95 90 98 94 95 96 95 97 97 96 92 92 94 92 76 64 57 59 60 80 82 61 55 56 60 55 62 22 22 30 31 25 14 13 14
90 84 72 62 60 92 98 99 97 98 95 96 97 97 96 92 97 99 98 98 98 98 94 86 81 86 89 82 78 76 70 68 63 66 29 24 31 32 26 15 14 14 15
77 99 97 95 97 96 92 94 96 97 96 96 96 95 94 92 90 89 92 91 91 92 92 90 84 78 73 72 75 76 74 73 62 39 23 30 34 31 22 17 15 15 17
44 49 64 84 87 97 99 98 98 98 98 96 97 97 96 97 90 81 77 75 75 75 75 73 71 69 67 66 68 72 70 57 34 22 31 34 35 32 24 16 15 19 14
23 33 42 48 58 68 94 96 97 97 98 98 97 98 98 94 91 81 79 83 80 78 73 70 66 65 68 74 75 71 51 29 22 36 38 39 37 32 24 15 21 19 14
23 21 21 23 22 19 17 23 48 83 91 92 84 76 92 97 97 95 83 78 79 79 77 74 70 71 71 81 73 48 29 25 35 42 44 40 36 21 16 21 22 19 22
27 24 22 21 19 21 24 21 20 22 25 22 22 31 35 37 55 73 64 64 65 65 64 65 68 70 70 74 77 73 54 30 37 44 42 35 36 56 28 32 23 22 25
31 25 23 23 29 30 27 23 21 29 31 28 28 30 29 33 39 49 54 54 60 59 60 62 62 66 71 69 63 46 40 37 40 38 39 57 56 33 36 27 26 32 37
26 25 27 29 32 32 28 24 24 27 39 44 46 46 41 43 54 59 66 69 68 74 79 71 74 64 50 49 45 46 49 55 78 68 78 45 62 40 32 32 39 42 38
29 29 40 41 39 33 35 37 38 38 49 49 49 51 52 54 58 66 67 71 71 78 83 81 71 62 64 61 70 66 70 75 76 72 70 68 38 37 41 45 48 42 39
31 30 44 44 45 40 42 47 46 48 54 60 59 50 51 58 68 78 93 88 88 88 78 87 81 78 77 80 87 76 82 85 91 86 59 52 52 50 53 54 45 43 43
34 29 38 46 46 52 57 56 67 69 71 75 85 92 73 65 71 71 77 90 97 91 82 77 92 94 92 92 92 96 91 87 72 72 71 59 58 62 56 48 47 48 49
66 62 57 55 60 58 57 68 72 84 89 89 85 86 90 91 86 87 92 90 96 99 92 73 59 79 73 67 70 75 73 74 91 77 66 67 65 55 54 53 53 57 66
66 65 65 70 77 82 77 68 74 71 74 90 89 91 94 94 94 98 100 98 98 92 96 97 98 98 92 93 95 98 99 97 90 76 75 68 64 64 62 59 64 70 72
51 53 58 64 66 68 70 68 67 64 81 81 71 75 75 98 99 100 100 97 95 100 94 95 100 99 98 96 99 99 99 94 85 83 80 79 79 70 66 72 80 80 79
53 54 57 58 58 60 63 66 65 70 61 51 46 43 49 85 96 100 97 97 99 98 96 98 100 99 99 99 98 100 97 94 94 93 94 93 80 72 77 92 92 91 77
63 62 60 58 59 62 64 66 68 59 54 65 75 82 86 95 97 95 97 98 98 91 87 86 89 92 95 99 100 100 100 100 100 100 100 92 80 83 100 100 97 86 79
72 65 60 58 58 61 64 66 62 55 58 72 77 81 87 90 96 96 94 93 91 89 90 91 97 100 100 100 100 100 100 100 100 89 77 79 89 99 99 94 90 88 92
83 76 63 61 61 65 65 62 69 100 83 76 83 89 97 95 96 98 100 100 97 90 90 89 86 91 95 97 95 95 92 87 76 70 76 80 77 76 75 83 96 95 93

GFSMW_500_rhum_090.txt.gz
RH
12 10 12 15 38 45 53 75 74 69 67 63 59 82 77 59 35 30 31 22 26 41 46 44 65 68 66 64 58 56 50 32 33 38 29 27 27 27 28 35 36 41 50
12 12 13 13 12 26 58 60 68 72 72 66 62 69 93 88 65 57 63 60 50 45 45 52 71 74 73 74 70 65 45 35 37 36 33 32 33 31 35 41 42 52 42
15 13 13 15 13 11 18 68 75 90 75 69 46 78 87 96 95 92 87 79 83 71 64 64 75 75 76 81 78 65 45 41 37 34 34 46 57 52 44 41 52 48 27
20 14 13 15 14 14 12 33 85 86 88 86 66 87 77 87 94 96 96 97 96 95 88 72 79 86 85 81 71 61 50 47 40 37 44 61 73 57 47 50 55 28 19
24 32 13 12 18 14 15 42 63 97 90 96 97 75 76 69 73 86 91 97 96 96 97 90 81 72 72 76 71 60 51 46 43 41 55 68 63 49 51 57 42 20 22
17 38 18 14 13 18 16 23 75 78 87 92 84 97 83 68 66 85 92 97 96 81 95 82 82 78 70 73 66 57 51 48 44 51 69 77 52 52 61 61 28 21 30
25 33 25 16 14 15 28 35 61 81 92 97 95 94 97 72 62 78 73 84 87 79 86 87 91 91 93 89 85 82 63 54 65 66 85 65 68 72 63 59 25 30 30
17 17 18 15 15 17 41 68 62 71 97 99 90 84 96 93 84 78 78 91 94 96 96 97 96 96 95 94 89 75 73 74 77 92 82 78 76 71 67 35 27 32 29
15 15 17 15 12 33 60 75 74 52 84 91 87 94 90 92 87 89 95 96 96 97 93 91 98 96 95 96 95 90 93 99 88 76 72 74 72 68 44 24 30 32 32
26 19 15 17 23 53 82 69 71 65 79 88 93 96 89 98 98 98 95 97 97 93 94 97 99 98 95 94 90 84 78 75 71 65 65 71 66 48 25 31 34 37 31
24 20 30 64 67 95 94 66 74 98 76 94 100 97 98 98 94 96 96 96 93 93 94 93 86 79 77 76 72 71 70 66 69 69 71 69 49 26 32 35 39 38 30
17 19 30 48 53 60 97 96 100 98 96 100 98 98 92 95 91 96 97 95 95 94 93 86 78 79 84 81 79 74 70 66 66 75 68 43 30 31 39 42 43 35 21
14 14 18 23 35 43 42 39 41 94 98 98 97 99 98 97 96 97 96 96 98 98 95 93 87 83 77 73 72 71 70 71 66 76 76 39 28 37 43 45 36 42 56
30 20 18 18 20 21 23 28 23 25 23 23 39 78 90 93 90 76 85 94 86 76 78 89 89 74 64 62 59 56 59 62 68 74 76 72 38 39 42 33 58 64 33
46 44 36 31 25 23 26 35 37 32 26 23 25 34 36 31 32 35 30 30 32 34 40 43 49 54 55 54 59 63 62 64 68 59 46 43 42 41 41 78 60 49 56
48 51 50 40 29 27 26 36 37 34 36 38 35 34 33 39 40 41 38 35 34 35 45 58 62 68 71 70 70 71 60 49 48 54 51 51 60 66 73 61 65 78 42
44 43 36 30 25 27 31 32 38 44 42 36 36 38 43 48 49 51 51 52 53 56 56 60 65 66 68 79 83 77 72 75 79 79 81 85 79 77 80 87 50 56 52
28 42 43 34 27 27 29 40 47 52 50 48 46 47 52 55 55 51 49 50 53 60 65 73 79 75 69 82 83 85 81 79 87 95 93 94 93 94 70 68 94 65 61
32 29 34 34 31 29 40 50 47 55 49 48 54 63 62 62 67 65 74 67 56 61 71 73 77 79 90 76 82 93 94 96 96 98 99 98 96 93 95 91 76 72 55
55 45 48 40 37 36 47 50 47 51 50 56 63 68 67 72 74 69 76 78 80 86 87 91 75 84 98 82 71 68 89 92 92 94 93 96 99 98 96 92 76 57 56
57 72 79 76 67 69 68 64 72 76 78 77 70 60 60 74 78 79 81 79 87 82 95 95 99 99 100 99 99 99 98 95 91 96 98 100 100 100 98 73 62 65 64
61 47 49 67 73 74 72 76 88 86 77 69 59 56 63 76 58 62 70 81 82 83 96 94 100 99 98 97 98 99 98 99 100 100 100 100 99 100 82 79 77 74 76
48 49 50 49 53 59 68 73 70 69 70 68 63 65 65 53 42 39 57 83 96 98 100 100 100 99 96 99 100 100 100 100 100 100 100 100 100 100 100 90 92 86 93
58 57 56 56 59 61 61 62 62 65 66 65 66 60 57 64 71 80 86 90 94 96 95 98 98 98 95 96 94 98 99 99 100 100 100 100 100 100 100 100 98 98 100
64 64 68 68 64 60 58 58 61 64 67 71 66 59 68 72 71 73 78 90 95 97 96 94 98 96 96 100 100 99 100 100 100 100 100 100 100 98 83 84 92 96 91
70 73 78 80 68 64 62 61 62 62 61 56 72 77 71 71 76 85 88 90 93 96 100 99 95 97 96 96 100 100 100 100 100 100 100 100 96 84 83 90 91 86 82

GFSMW_500_rhum_093.txt.gz
RH
79 71 78 67 62 53 67 54 51 64 77 73 63 62 62 54 36 58 47 29 22 19 20 24 29 40 49 49 69 70 70 69 66 60 40 39 37 38 36 50 60 64 55
39 47 62 54 42 52 48 43 41 43 48 55 69 76 70 66 61 68 75 79 66 53 47 46 46 41 49 49 69 77 74 75 74 64 50 46 39 38 43 62 67 61 55
17 28 44 31 26 16 13 15 17 28 48 51 46 50 68 76 89 84 93 97 93 97 95 95 96 83 69 76 82 81 76 78 71 62 56 48 45 42 49 62 70 64 57
14 14 23 25 12 14 13 12 12 17 13 22 64 73 60 93 82 82 96 97 96 96 95 90 97 96 94 85 78 86 81 68 63 60 56 50 49 49 53 69 70 62 67
20 11 10 15 18 15 13 13 18 21 26 27 30 66 76 74 75 89 80 76 90 92 94 92 97 95 93 96 83 87 82 70 66 63 62 65 62 58 60 71 69 68 67
44 27 11 14 15 17 14 14 13 16 13 26 48 63 82 81 98 95 96 86 92 83 78 96 97 95 91 90 81 80 74 78 82 80 73 73 66 69 73 77 72 68 63
42 47 30 15 18 14 17 28 20 14 14 23 42 49 64 90 88 86 96 87 90 92 91 90 89 94 92 92 94 94 94 90 88 84 83 78 72 77 83 72 72 66 62
34 38 38 34 32 19 17 17 21 18 16 14 16 32 66 82 75 98 96 83 96 90 78 76 85 88 96 96 86 83 80 82 84 89 89 89 89 83 69 65 64 63 60
19 26 32 28 22 19 21 18 17 15 15 15 19 24 42 77 90 98 93 82 86 86 86 88 95 97 85 87 79 78 78 88 90 89 95 85 74 70 65 60 65 64 49
23 20 18 18 19 18 17 15 14 14 14 19 59 54 67 62 82 93 93 91 89 85 93 96 98 96 94 91 86 82 85 94 88 76 69 71 68 66 64 68 68 52 32
22 20 21 17 17 18 16 15 14 13 16 31 51 59 73 62 66 99 99 99 87 88 93 97 96 96 96 95 92 91 84 73 74 75 73 70 65 65 67 67 58 41 33
27 34 29 22 17 16 15 22 27 54 68 74 80 83 98 79 78 95 84 81 98 97 98 87 84 82 84 94 92 85 78 73 74 75 72 69 67 62 70 70 48 35 36
15 20 24 20 17 20 27 40 58 53 68 73 81 76 80 80 94 100 98 94 96 97 96 93 94 94 94 92 94 93 84 74 71 69 64 57 59 62 69 75 74 53 41
13 14 14 14 16 18 20 29 35 36 34 28 38 79 89 99 99 100 98 99 98 97 92 91 88 92 91 90 76 70 80 84 72 58 53 52 55 66 73 76 57 44 42
23 20 22 19 17 17 18 22 26 33 36 30 31 33 29 37 41 39 42 37 28 31 35 41 42 38 32 31 35 39 44 54 59 58 59 57 59 60 54 46 48 48 45
53 63 64 60 52 39 33 30 26 28 39 40 32 27 22 18 19 26 28 24 23 24 27 36 37 37 36 44 52 56 54 57 60 67 69 64 61 76 74 65 69 81 78
60 59 66 52 50 54 47 36 31 30 38 42 40 33 34 37 39 41 41 36 38 40 41 42 46 52 53 55 55 55 52 50 59 82 75 86 88 87 87 87 84 81 94
45 39 39 45 44 41 36 30 32 35 37 41 48 50 57 62 57 52 52 51 53 53 52 50 49 53 57 60 62 69 66 69 70 73 87 92 98 96 93 100 100 100 84
38 40 34 30 41 40 38 31 32 42 46 51 48 46 46 49 52 52 53 60 67 64 58 61 68 63 62 70 73 71 79 86 78 88 98 98 100 100 100 100 100 100 100
44 50 49 43 34 34 44 44 35 34 55 54 48 49 53 54 60 58 60 63 68 68 67 65 69 75 74 77 76 76 87 98 87 81 91 98 100 100 100 100 99 100 100
62 66 65 63 53 58 59 57 50 48 51 61 64 64 62 64 68 60 61 65 67 69 69 71 84 82 82 95 100 100 98 97 99 100 100 99 99 99 100 100 99 100 100
55 53 57 61 54 62 79 81 81 78 83 79 72 76 85 81 74 61 57 65 54 49 65 85 87 88 96 96 100 100 100 100 100 100 98 99 100 100 100 100 99 100 99
49 49 47 52 60 54 55 77 85 83 85 84 86 88 81 70 63 60 62 54 42 39 62 84 94 99 100 99 100 98 100 100 100 100 100 100 100 100 100 100 100 100 99
57 54 54 54 58 60 62 66 69 71 75 73 70 69 69 67 67 62 60 70 77 83 88 88 90 90 88 94 100 100 98 100 100 100 100 100 100 100 100 100 100 98 100
68 67 63 61 62 63 65 67 67 65 64 65 69 70 71 72 66 61 72 70 68 70 76 82 86 88 87 87 94 97 100 100 100 100 100 100 100 100 100 98 98 100 99
73 68 66 65 68 74 75 71 66 62 61 64 68 70 70 65 65 72 72 70 77 94 96 94 93 94 100 99 98 100 98 100 100 100 100 100 100 100 100 100 100 99 98

GFSMW_500_rhum_096.txt.gz
RH
45 42 50 78 76 79 70 97 69 69 56 56 62 67 73 63 62 59 55 45 38 48 39 24 20 18 20 26 32 44 51 63 76 77 75 74 68 56 50 46 44 43 47
48 38 31 44 80 78 74 82 80 80 71 71 62 68 68 67 64 60 62 62 52 54 72 70 66 41 29 34 42 44 52 65 84 84 82 80 69 59 55 47 46 46 48
54 41 34 28 40 64 87 84 86 76 68 53 44 42 42 33 27 38 57 61 73 86 92 96 97 96 97 97 96 91 77 79 96 91 85 77 69 59 52 49 54 56 58
70 52 38 31 28 40 66 70 74 77 68 54 45 47 37 42 47 38 30 63 74 71 87 95 95 95 95 95 96 97 96 94 92 86 75 69 63 70 62 66 66 62 60
68 54 43 39 40 56 59 61 60 62 39 19 22 48 69 72 62 29 33 52 47 50 68 95 90 86 94 92 97 96 96 98 96 93 86 78 77 77 72 76 74 64 65
61 52 41 25 26 36 31 37 37 25 26 17 20 35 40 46 47 55 63 47 50 65 75 98 95 96 94 96 96 93 96 95 92 89 88 86 78 83 79 76 77 72 72
45 44 46 34 18 16 21 21 22 18 37 41 42 41 69 58 54 55 87 93 67 80 84 85 88 92 94 95 96 96 97 95 94 86 81 80 79 78 79 78 80 76 69
37 33 30 29 37 33 19 16 22 20 18 23 37 36 36 38 31 47 81 97 97 78 78 84 90 95 93 90 100 91 95 96 94 77 72 76 76 83 83 85 82 67 57
29 40 40 33 27 23 36 36 37 29 23 19 16 17 24 34 45 39 26 60 78 75 96 98 96 95 93 94 96 88 98 96 82 74 74 82 81 88 84 73 68 62 56
46 43 38 34 27 27 32 34 31 34 25 24 24 23 19 15 15 14 12 29 38 41 57 94 97 95 94 96 95 92 96 96 80 82 85 89 92 76 68 67 67 63 60
49 41 37 24 20 23 32 31 29 27 27 21 22 19 16 15 14 15 18 19 37 51 53 77 94 95 99 98 99 98 96 98 86 86 93 90 81 73 74 70 67 65 60
55 44 29 26 24 21 20 19 20 20 19 18 16 14 14 14 15 18 47 45 58 64 66 96 93 82 96 99 97 96 94 94 92 97 98 93 80 75 71 70 65 60 55
39 51 30 20 23 27 23 20 19 17 16 17 18 22 29 48 46 59 53 63 82 85 77 87 95 92 96 90 85 96 93 79 100 100 93 94 95 86 76 66 58 56 60
20 25 31 21 31 34 29 28 34 35 32 33 36 46 49 54 66 62 75 94 97 93 100 100 98 96 89 91 86 75 79 89 90 89 80 69 68 66 66 63 61 62 76
21 16 15 15 24 33 30 28 27 28 31 34 34 34 32 26 33 44 83 88 89 96 99 93 81 59 39 36 33 36 35 32 31 36 40 50 51 56 57 61 65 56 55
31 21 22 19 19 18 16 18 21 22 24 25 31 42 47 51 26 26 26 27 28 32 25 20 19 22 22 21 33 36 33 37 38 42 49 46 50 59 71 72 67 72 81
57 58 69 69 50 40 32 32 31 29 28 26 25 34 43 36 31 26 24 23 20 21 24 29 32 35 40 42 43 43 47 49 51 56 56 56 57 62 82 95 94 97 94
81 67 66 72 80 64 53 54 50 48 43 38 34 29 32 37 38 35 29 25 27 32 38 47 51 53 53 54 57 55 50 51 53 57 62 65 73 84 90 95 100 99 100
74 70 60 52 47 58 61 51 46 50 48 40 40 37 37 42 49 45 42 43 43 47 52 54 57 59 60 52 54 57 65 66 69 68 68 77 84 71 94 100 100 100 100
53 46 43 46 49 50 41 39 49 42 37 38 36 39 58 58 54 50 48 46 44 57 56 59 61 62 60 56 59 71 72 75 79 83 78 88 99 98 98 98 100 100 100
62 57 47 53 62 62 59 50 41 42 44 44 44 41 39 59 60 56 56 50 51 66 57 55 60 51 50 60 70 74 81 82 95 100 99 88 100 100 98 100 100 100 100
58 60 58 61 62 61 59 58 57 58 62 59 57 53 52 53 59 62 65 70 74 69 56 57 55 45 48 67 76 78 85 93 95 97 99 100 98 100 100 100 100 100 100
85 76 70 61 55 56 60 60 53 57 75 81 92 99 98 89 86 91 92 82 71 61 57 54 46 43 58 75 83 84 88 92 95 95 100 99 94 100 100 100 100 100 100
66 59 58 57 54 55 58 61 64 62 73 83 91 97 97 90 84 82 79 71 65 62 62 66 75 77 78 81 82 80 80 88 99 100 100 95 95 100 100 100 100 100 100
70 67 66 67 66 63 63 65 66 71 75 79 82 80 75 72 70 72 75 75 68 65 70 68 67 70 72 77 85 87 86 85 98 100 100 100 100 100 100 100 100 100 100
76 74 78 76 71 68 67 71 75 76 74 72 69 65 64 66 70 74 77 73 70 71 72 73 84 92 91 92 95 94 95 95 98 99 100 100 100 100 100 100 100 100 99

GFSMW_500_rhum_099.txt.gz
RH
64 65 78 90 71 76 73 93 94 96 95 93 55 51 49 49 55 66 62 67 67 63 59 52 41 41 43 35 26 22 23 27 36 49 55 72 82 82 78 71 66 59 53
52 43 51 58 73 82 93 86 79 75 87 94 91 62 59 67 65 71 68 64 62 60 58 62 77 81 81 96 94 95 66 43 45 48 61 78 90 86 84 79 71 62 54
43 48 39 33 40 51 71 79 87 85 96 96 77 83 79 67 65 80 78 53 32 28 34 57 89 96 95 96 96 96 97 97 98 93 90 89 98 93 85 78 76 80 81
48 47 41 36 42 53 49 52 74 88 87 94 78 72 78 65 59 74 76 75 60 51 42 30 50 80 92 83 96 94 95 96 94 93 95 96 91 82 78 78 74 72 64
72 82 82 64 61 60 54 55 51 73 84 90 90 89 82 66 66 58 52 68 68 69 75 54 59 68 72 66 76 96 92 95 97 95 97 96 93 90 84 80 70 68 66
83 70 75 67 56 53 53 40 46 59 73 79 76 72 72 70 54 38 55 67 88 100 92 95 98 96 96 67 94 97 93 93 95 95 96 97 95 94 89 88 79 74 68
69 76 84 66 58 55 48 44 49 64 84 65 66 58 56 58 66 56 66 53 57 61 90 98 96 96 94 62 85 85 90 84 95 98 92 95 93 90 93 88 82 80 78
82 83 69 58 61 58 54 52 47 31 46 50 51 50 39 44 52 58 56 46 68 76 39 52 70 97 91 71 59 96 96 98 94 96 92 92 94 96 93 84 79 74 74
86 75 55 49 46 43 47 40 31 21 17 18 22 35 37 37 50 53 39 42 40 48 56 58 43 24 85 27 98 97 97 95 97 92 96 93 93 94 95 87 83 83 77
49 50 45 38 36 36 35 30 33 41 35 22 13 12 18 22 27 38 34 37 28 36 38 15 15 22 22 15 22 64 73 88 98 97 96 96 96 95 93 91 89 89 82
38 37 35 35 34 33 32 36 33 32 34 30 31 23 16 16 17 17 21 22 20 16 15 14 15 18 33 27 39 73 94 82 75 91 88 91 96 96 93 84 96 92 85
58 51 46 42 38 36 33 34 32 30 27 29 34 36 42 41 31 26 22 21 19 16 14 14 15 14 38 58 56 93 86 77 60 95 77 73 79 74 86 88 92 94 91
57 47 52 52 46 43 39 38 34 26 21 24 32 35 34 33 29 24 21 18 16 15 16 20 33 28 56 58 80 87 91 98 88 85 80 76 82 91 92 99 100 97 95
58 50 60 58 41 32 32 30 28 24 20 19 19 22 23 24 25 30 26 21 23 20 26 33 49 56 86 88 86 77 98 79 80 86 80 80 85 85 90 84 70 64 57
63 44 49 50 40 40 27 26 31 32 27 25 23 24 25 32 41 44 40 35 37 42 66 71 76 64 81 99 100 98 65 35 31 35 33 33 35 32 33 51 60 60 64
52 40 37 29 25 24 23 20 41 40 34 34 36 34 35 38 36 35 36 27 25 26 26 36 28 39 43 39 34 24 25 28 31 33 34 38 35 43 51 53 53 56 68
64 61 48 38 27 25 18 19 24 30 30 26 24 26 28 32 33 36 40 57 44 30 28 28 29 28 24 23 27 32 32 32 39 43 44 43 49 54 55 56 60 66 75
65 72 74 76 77 68 45 30 23 21 19 20 22 27 29 29 28 31 30 37 35 30 30 29 28 25 29 35 34 36 38 42 44 43 53 64 60 61 62 66 71 81 91
75 81 82 96 94 81 81 60 47 41 43 49 54 48 38 38 38 34 31 32 32 33 34 36 34 33 42 42 43 45 50 51 51 53 60 64 73 82 86 77 78 90 77
77 82 87 88 91 76 72 72 71 62 63 64 58 59 68 54 44 40 40 39 42 48 49 47 41 39 49 46 51 53 47 43 55 64 67 72 76 88 89 89 94 100 100
80 82 79 73 72 83 92 87 72 55 48 44 46 50 49 44 40 42 40 50 58 57 51 49 48 43 56 54 51 50 45 49 66 70 74 81 90 96 98 100 82 100 100
67 66 80 70 64 66 63 75 76 65 56 55 52 48 45 42 42 44 46 44 42 48 53 59 64 71 62 52 48 43 40 63 78 77 77 80 88 90 100 100 96 94 100
63 58 59 64 66 68 66 66 64 63 58 59 61 68 71 72 72 75 82 86 84 78 77 84 80 70 59 53 50 53 59 72 81 80 81 80 89 86 96 97 98 96 100
77 84 83 80 77 72 68 62 58 57 58 61 57 59 74 86 92 94 94 93 96 92 86 81 70 62 61 64 66 68 64 64 75 80 82 83 86 97 99 100 100 100 100
90 89 88 77 66 61 58 56 54 53 56 61 64 68 77 88 93 95 94 92 90 82 78 74 71 66 72 69 65 62 69 73 78 82 89 90 96 100 99 97 100 100 97
100 92 91 90 77 71 71 70 67 63 64 66 67 70 74 76 74 70 68 68 70 73 75 75 73 75 78 77 81 91 86 86 95 90 91 98 100 100 100 99 94 95 100

GFSMW_500_rhum_102.txt.gz
RH
77 94 96 92 95 97 95 95 96 96 96 89 94 95 96 91 84 71 57 58 65 64 66 63 59 56 57 57 50 36 42 57 56 85 41 28 28 41 57 69 79 82 80
57 74 79 92 96 95 93 95 96 95 94 95 96 96 96 92 68 57 62 77 74 69 65 60 58 52 50 49 67 94 96 96 95 90 96 88 64 42 52 68 77 78 84
72 84 81 82 85 76 89 96 96 96 95 95 97 95 96 96 91 75 82 80 74 69 74 57 35 33 36 72 79 94 94 96 95 94 97 86 84 89 86 90 94 94 93
63 62 75 73 70 65 65 68 79 80 71 99 95 95 96 95 92 95 96 97 94 91 88 89 92 95 95 91 96 94 95 96 96 96 96 94 85 100 95 97 99 95 91
75 69 68 62 61 59 53 58 61 54 55 72 86 94 96 97 93 96 97 85 72 76 71 58 62 68 93 96 94 96 97 96 96 97 94 93 94 99 97 100 98 98 95
90 89 82 81 77 74 80 81 60 59 53 68 85 92 86 96 82 81 82 84 79 63 58 56 54 97 96 97 97 96 97 92 85 91 92 92 89 95 94 88 87 92 79
94 96 99 92 84 84 89 90 81 67 56 55 67 67 64 84 87 89 84 82 77 59 62 84 60 50 83 94 89 89 93 49 34 59 94 97 97 95 98 94 87 82 80
84 91 100 94 86 100 94 80 67 61 61 52 50 46 52 62 72 78 66 61 53 52 55 65 45 50 53 56 56 44 16 35 32 22 51 95 74 96 90 87 92 86 85
71 71 88 90 88 88 86 84 76 58 54 52 47 42 41 42 51 48 55 51 41 45 51 52 43 39 41 42 34 16 13 34 22 16 16 15 47 53 74 78 85 80 81
90 84 79 80 81 100 92 79 64 53 51 47 47 50 46 29 21 30 39 50 47 38 48 50 41 25 24 24 16 14 13 15 16 15 14 22 63 70 64 77 74 70 74
81 86 95 97 96 79 65 56 48 41 39 44 42 39 36 34 30 24 16 14 18 29 48 45 28 20 16 16 16 15 15 16 17 16 30 40 76 94 91 77 77 72 77
80 78 76 70 70 68 57 46 38 32 28 30 32 29 27 29 29 27 30 27 21 20 22 24 24 23 21 18 17 15 16 21 23 29 41 72 88 87 76 62 67 70 81
77 78 71 57 50 45 47 44 34 29 28 26 24 26 25 24 27 27 27 27 29 34 34 32 29 25 22 20 16 16 19 30 28 58 63 66 76 75 60 58 65 88 97
84 84 74 65 56 46 40 35 30 25 24 24 27 29 28 26 25 25 28 30 31 31 32 31 26 21 18 18 23 36 48 57 61 79 91 94 65 52 56 57 56 55 56
68 74 82 79 60 50 50 43 35 30 26 27 29 32 33 26 19 20 21 23 24 24 24 32 30 30 34 37 51 48 35 43 70 94 92 49 33 30 32 34 37 41 48
73 76 80 73 63 50 65 59 50 41 39 37 35 33 28 26 25 24 24 26 27 28 34 36 31 27 26 26 32 27 23 29 35 36 32 33 33 36 42 43 44 50 54
86 82 77 70 53 43 41 43 36 33 33 29 27 31 36 33 32 34 40 41 40 37 38 40 50 43 25 23 24 28 31 30 26 26 31 33 36 40 41 43 53 55 56
70 68 76 70 63 59 48 39 31 26 23 19 20 40 40 34 28 26 27 29 31 36 38 36 39 39 29 33 34 32 27 26 34 35 31 33 38 40 44 53 62 67 68
65 85 89 85 85 82 64 46 38 32 27 23 20 21 23 22 20 21 22 24 26 27 28 28 32 35 36 37 36 33 31 39 38 37 39 38 35 44 57 54 58 67 76
94 91 86 97 92 91 87 78 66 58 47 45 40 37 35 36 40 46 48 45 43 45 41 38 38 44 45 44 40 39 37 38 50 44 37 35 43 54 59 67 78 92 96
91 69 60 74 87 98 97 93 85 91 73 62 60 63 60 66 66 59 59 67 71 62 46 41 52 57 54 48 46 48 48 53 53 45 35 35 59 64 70 74 84 78 84
92 66 69 74 79 89 98 95 91 87 82 74 75 70 66 58 49 53 60 51 50 46 46 47 45 40 39 47 52 59 65 59 51 44 40 50 71 68 66 72 78 74 83
100 90 75 69 71 71 87 98 92 85 70 77 84 83 79 75 70 60 55 54 54 58 64 70 78 78 98 91 85 79 65 56 50 60 64 67 74 71 64 69 84 94 90
100 96 81 69 66 68 67 68 70 68 70 68 66 64 61 61 62 73 83 84 82 83 89 95 93 88 86 90 83 70 62 66 66 62 61 62 59 66 77 84 89 90 92
100 99 84 73 81 91 88 88 83 75 67 62 58 58 58 62 65 63 68 80 88 92 91 92 88 82 79 77 76 70 71 72 66 75 81 82 82 89 93 96 95 100 100
83 96 97 92 92 91 90 81 69 64 62 61 62 61 62 64 68 70 74 79 79 76 73 69 67 70 76 79 76 78 82 81 88 95 89 85 92 96 100 100 98 100 100

GFSMW_500_rhum_105.txt.gz
RH
95 96 95 95 92 92 96 96 97 96 96 96 96 96 82 84 82 65 58 67 74 50 58 63 62 58 61 59 56 51 47 47 65 91 98 92 94 93 85 77 54 44 44
95 96 97 97 96 97 96 93 96 96 97 97 94 97 94 91 88 72 66 77 78 56 62 60 58 61 61 56 48 42 39 60 73 96 96 96 84 85 93 90 80 79 70
68 79 93 94 97 97 96 95 96 96 95 97 96 96 96 96 91 83 86 93 84 68 73 72 62 64 62 57 44 58 93 97 97 97 96 95 95 99 97 95 94 87 76
66 65 75 80 83 82 93 97 96 97 95 96 96 97 97 97 96 99 97 96 96 96 96 67 68 76 80 92 96 96 97 95 97 96 95 87 92 96 95 85 84 81 95
74 79 72 68 66 64 90 85 89 92 93 91 90 94 95 94 96 97 97 98 96 96 96 92 80 74 81 96 96 97 97 97 96 96 92 52 39 44 68 72 89 96 98
96 88 94 81 81 74 75 77 71 84 92 87 96 96 97 93 94 96 95 96 91 77 75 77 82 93 92 94 94 94 96 96 96 90 82 46 25 17 23 41 70 68 82
84 88 87 84 97 93 85 74 64 59 58 86 89 84 75 80 91 80 91 87 95 70 57 64 66 63 59 65 71 67 75 71 52 41 26 15 15 15 16 15 15 16 21
83 91 87 93 100 88 85 87 78 71 68 66 63 65 64 62 61 59 60 67 73 66 60 67 62 57 50 52 61 48 36 40 42 32 16 14 12 12 14 15 13 12 22
98 96 94 100 99 98 86 84 82 80 86 87 78 66 61 54 54 55 51 49 62 66 60 60 55 49 43 41 43 44 33 24 21 21 17 16 15 14 15 17 15 13 20
96 89 96 92 85 96 100 89 87 87 94 87 78 72 53 50 53 53 45 43 45 46 54 55 52 52 45 38 33 37 40 34 26 19 18 17 16 15 17 17 16 25 49
96 100 96 96 93 90 84 78 90 83 89 82 78 77 64 48 42 42 45 51 45 27 22 29 38 21 22 22 24 31 41 33 24 20 20 19 16 16 18 25 43 76 80
71 86 90 92 100 100 100 88 86 88 82 86 77 61 51 45 44 43 41 39 36 34 32 31 30 27 22 21 20 21 22 24 24 24 21 18 16 19 40 63 74 82 67
94 76 88 93 93 94 99 100 100 96 76 56 49 42 35 28 29 32 29 26 24 23 22 23 23 23 25 30 32 34 36 34 27 20 19 22 35 49 60 67 82 78 71
100 96 90 92 98 92 76 71 78 72 67 56 48 41 33 29 27 28 26 25 26 24 23 23 23 24 26 27 28 27 26 23 22 27 48 56 50 48 70 80 64 35 26
71 91 95 90 80 93 81 66 59 54 53 49 50 43 33 27 27 30 32 31 28 26 23 22 20 19 20 21 24 28 31 34 40 52 29 16 16 18 25 29 29 29 33
80 68 66 77 76 78 73 64 56 52 47 42 39 36 34 31 33 34 34 34 31 28 25 23 20 20 20 27 36 32 28 25 23 18 16 15 15 21 26 30 31 32 36
99 100 93 87 90 95 91 87 79 60 53 49 48 44 41 37 35 35 34 32 30 29 27 25 25 31 41 38 41 52 47 30 22 19 19 20 22 31 28 25 25 30 35
76 82 91 100 100 100 96 81 65 56 60 63 53 39 32 31 31 26 30 35 34 30 32 38 42 40 38 40 32 34 36 31 27 24 24 21 28 33 33 30 26 31 38
75 70 78 96 100 98 94 96 91 70 49 47 47 37 32 28 22 18 24 34 33 28 23 23 24 25 25 26 32 34 34 32 31 32 30 27 28 34 38 35 26 39 53
83 83 92 90 94 87 77 77 76 74 68 52 42 35 34 33 28 22 20 21 22 27 36 36 37 42 45 45 44 43 37 38 38 36 35 34 35 43 44 36 30 57 58
95 90 88 94 92 90 84 82 72 72 63 50 46 45 56 55 50 47 46 44 54 59 61 59 60 63 58 50 44 43 48 48 44 41 40 44 50 50 44 37 43 62 57
100 100 91 95 96 96 89 90 83 74 66 58 63 77 84 76 67 63 59 57 64 67 61 58 61 58 55 47 46 45 47 42 41 47 60 65 57 50 48 50 64 66 56
100 100 100 100 97 82 76 81 79 78 89 92 91 92 93 93 95 84 77 81 78 77 72 67 60 61 54 57 64 61 63 69 77 88 78 63 60 58 57 58 60 58 55
97 96 90 86 81 76 73 66 65 68 69 94 98 97 95 89 89 90 87 85 83 79 81 80 86 90 76 84 88 88 86 86 90 88 79 71 67 62 59 64 71 79 86
95 96 91 93 98 90 80 72 69 66 65 68 78 86 87 81 74 69 66 66 63 67 75 86 88 89 92 94 83 84 82 80 81 77 73 73 77 81 82 84 90 94 96
70 68 82 77 81 92 93 81 82 85 81 81 79 74 69 67 64 64 64 68 70 74 80 84 83 82 76 72 68 71 73 80 82 81 81 86 86 86 90 85 92 98 97

GFSMW_500_rhum_108.txt.gz
RH
96 95 97 96 96 97 96 97 95 94 97 100 91 83 80 76 84 91 93 90 78 70 64 63 60 60 58 54 54 55 53 50 48 54 61 73 81 83 82 79 78 84 84
96 98 96 94 96 96 97 96 97 96 96 96 97 92 88 88 90 92 90 78 74 66 57 56 58 66 63 60 56 55 57 54 54 81 89 94 98 98 97 88 81 85 83
96 92 96 96 97 96 97 95 97 95 96 92 92 98 96 98 93 96 84 78 73 57 75 75 61 61 58 56 58 56 54 75 95 96 97 97 96 88 80 74 75 82 84
94 97 97 96 96 96 97 97 96 96 96 95 96 97 96 96 95 96 94 92 81 86 97 96 96 95 93 63 64 62 87 97 97 98 96 95 95 94 64 30 20 24 22
93 91 96 96 88 93 93 96 97 97 96 96 96 97 96 97 97 96 97 96 95 97 96 95 97 96 95 85 95 96 96 97 96 96 96 97 93 63 39 27 25 18 15
67 79 91 93 88 94 96 96 95 96 96 96 97 97 97 97 96 97 96 97 96 96 97 96 97 97 96 88 77 56 53 88 94 94 84 74 55 29 25 17 14 13 14
85 77 80 77 78 91 89 89 86 83 91 100 87 94 95 97 96 96 96 96 95 96 96 95 95 96 94 66 59 60 55 54 55 63 49 45 34 39 25 17 15 15 15
91 94 84 88 82 73 72 70 75 70 74 79 68 70 82 96 94 95 95 96 96 92 94 95 90 82 66 62 55 50 51 48 46 50 54 48 50 44 40 20 18 17 17
86 86 85 70 74 80 81 81 76 73 68 64 57 52 71 81 81 78 87 87 81 79 90 86 65 62 60 58 54 48 44 42 37 37 34 34 40 42 36 22 20 19 19
100 78 73 99 94 94 85 92 83 79 78 70 61 57 58 67 71 67 60 54 50 50 59 51 47 46 45 50 45 40 38 38 38 29 21 17 24 26 23 22 22 23 17
57 77 94 87 100 100 100 99 95 97 92 91 86 75 82 84 82 75 67 56 48 45 48 46 44 48 48 34 24 29 24 24 23 22 21 22 24 24 27 28 25 18 20
70 50 60 93 95 97 98 99 100 94 94 91 84 72 78 86 76 69 64 61 51 44 41 42 47 46 33 31 31 29 27 25 22 25 22 25 22 24 22 18 20 26 41
100 99 64 52 56 73 89 86 83 80 82 79 82 82 78 72 70 70 63 52 43 42 40 36 32 28 31 26 23 23 22 21 23 23 24 23 21 20 22 39 52 50 52
70 100 100 98 78 68 73 69 79 90 87 89 88 88 82 75 72 60 45 34 31 28 28 28 27 26 23 24 23 22 21 21 22 20 19 20 26 38 46 19 13 11 10
100 100 100 100 100 100 99 96 78 82 93 95 94 91 84 65 56 47 43 38 32 27 26 27 26 26 25 24 23 22 20 19 20 22 26 28 29 24 18 15 13 11 14
81 93 100 100 100 100 100 100 100 94 90 80 71 70 57 55 53 50 48 39 36 30 26 27 27 30 30 28 26 25 24 24 30 33 36 34 26 23 18 18 16 13 18
69 70 74 78 81 99 100 98 97 97 92 86 83 71 59 54 47 43 40 37 36 34 32 34 34 32 31 31 31 35 37 42 41 44 46 38 30 24 22 21 18 20 28
75 78 84 92 94 99 100 100 100 100 99 91 83 72 60 55 53 48 45 42 39 36 34 34 35 33 33 35 38 39 38 42 40 29 28 32 31 30 27 26 24 23 22
84 88 86 98 100 100 98 96 98 95 93 89 77 75 67 66 57 54 40 30 28 28 28 43 44 36 28 26 26 26 30 33 34 37 39 38 34 32 32 32 31 27 28
56 73 80 88 93 91 96 100 99 93 88 88 86 66 54 49 46 40 34 31 24 22 23 24 20 20 21 28 37 37 44 47 52 58 52 45 41 40 38 36 33 36 40
93 90 80 72 82 84 97 98 96 93 80 74 80 86 79 75 69 60 61 58 45 37 31 27 20 20 28 54 60 60 57 60 64 48 38 40 39 36 35 38 43 49 47
100 100 94 84 76 88 89 99 99 96 94 80 66 61 68 71 77 74 58 65 61 60 54 55 46 41 48 66 62 63 64 61 54 55 52 48 46 46 52 64 68 57 55
94 97 100 100 100 100 95 95 90 88 86 81 78 85 94 99 94 88 79 75 71 66 65 63 58 59 61 63 62 62 62 60 56 54 58 60 63 80 84 74 65 63 58
100 98 87 86 96 100 100 100 100 97 74 72 78 87 99 97 93 91 96 99 100 100 94 88 92 92 93 93 86 78 73 81 88 85 82 77 81 84 82 78 72 66 61
100 99 100 97 93 87 85 82 87 94 71 66 66 71 75 92 97 96 97 95 95 94 94 94 93 91 92 95 95 90 78 93 94 85 78 77 78 79 80 80 78 84 84
86 85 84 84 86 84 80 76 79 84 77 72 70 69 72 79 82 88 91 91 84 77 76 76 75 77 92 82 86 87 86 78 69 66 67 75 78 82 91 90 85 82 86

GFSMW_500_rhum_111.txt.gz
RH
94 72 80 94 96 95 97 92 96 94 94 89 89 83 67 40 34 30 30 28 33 54 38 46 58 58 55 53 52 47 44 46 44 53 63 67 59 57 70 86 91 95 84
93 94 90 91 97 91 96 92 95 95 97 96 93 76 43 33 39 42 44 54 55 51 59 69 87 70 61 57 56 53 50 49 55 68 76 75 91 97 96 81 76 50 35
88 96 93 96 92 87 94 95 96 95 95 92 92 85 55 74 72 54 90 85 77 69 81 90 85 72 72 85 79 70 53 57 72 77 71 96 96 95 94 89 76 63 47
98 98 96 96 96 96 96 98 96 96 96 95 95 93 96 92 68 81 94 87 86 89 94 95 85 70 68 84 88 89 72 58 72 82 96 96 97 94 92 91 62 44 35
89 95 96 97 96 96 97 97 96 96 95 97 97 96 92 89 91 93 92 98 98 96 95 93 79 76 84 96 94 89 96 96 95 96 95 95 85 65 52 61 70 45 29
94 94 96 95 95 95 96 96 96 97 96 97 94 94 95 95 90 97 97 94 94 96 96 95 95 94 96 96 96 96 96 94 96 74 90 93 59 63 56 43 38 35 30
96 84 79 90 93 97 95 93 91 97 97 97 97 96 97 96 94 94 96 96 96 97 97 97 97 95 97 97 96 96 91 78 68 65 56 60 51 38 41 39 33 31 28
87 90 84 90 95 95 97 93 91 95 96 96 96 97 97 95 97 97 96 96 97 94 96 97 96 96 96 94 95 95 88 46 46 51 48 50 40 38 37 29 23 22 20
80 98 97 89 90 86 75 78 91 92 96 90 90 91 96 96 96 96 92 95 94 95 96 97 94 94 94 92 91 49 64 51 49 43 40 38 33 24 22 21 24 24 18
96 92 98 87 80 85 80 76 78 86 82 90 84 94 93 95 89 95 92 86 84 91 94 88 84 85 65 67 54 46 39 37 39 33 28 26 26 27 24 26 24 16 14
96 92 87 78 80 77 83 72 83 78 74 79 85 79 78 77 66 77 94 94 90 74 67 61 57 51 52 43 45 46 39 39 34 27 30 31 26 23 20 17 15 15 15
93 77 74 90 77 67 74 93 87 84 81 79 74 75 78 77 74 78 88 95 86 74 69 58 53 46 43 49 42 41 41 34 34 33 29 25 24 22 19 17 17 16 18
78 82 71 76 86 94 100 91 100 88 89 96 91 96 88 87 82 70 62 83 80 74 70 67 60 51 45 42 40 39 34 34 32 24 23 23 20 20 18 17 16 18 24
70 94 84 58 61 73 71 84 95 97 98 98 98 98 100 96 88 86 81 85 82 74 74 60 46 40 37 34 37 36 31 24 22 23 21 20 21 19 18 18 21 28 25
94 94 100 94 82 73 82 78 68 70 89 88 78 84 90 93 94 98 95 92 82 74 59 45 36 32 29 45 52 29 26 23 22 24 23 23 22 21 23 27 28 25 22
100 100 95 94 100 100 100 100 100 82 80 74 74 78 81 89 96 97 96 84 66 58 50 46 43 38 40 30 29 27 26 29 28 26 27 27 27 31 36 41 41 29 24
96 89 98 100 100 100 100 99 99 100 99 93 88 81 84 82 79 83 86 70 62 57 53 48 46 39 38 37 34 31 32 31 30 29 27 30 36 42 36 30 31 30 30
100 92 89 96 100 100 98 100 100 100 100 100 100 100 100 97 91 82 73 65 57 53 49 46 43 40 39 36 35 34 33 31 29 31 37 37 41 37 29 35 38 36 32
95 100 100 99 94 97 100 100 100 98 98 96 95 94 96 92 90 86 79 69 63 58 56 52 49 41 34 36 37 36 33 30 27 25 26 29 33 39 42 50 46 43 38
100 100 100 95 91 100 99 99 100 100 100 88 79 82 86 87 88 89 87 78 70 61 54 41 28 26 26 30 31 27 25 24 30 39 40 45 45 55 60 47 44 41 36
70 75 83 73 58 66 79 91 91 95 95 91 89 88 89 88 82 86 84 64 62 66 67 53 40 30 26 25 26 22 28 40 58 55 66 60 58 66 54 49 50 47 45
100 87 86 78 55 63 74 76 74 74 82 94 99 93 90 84 87 93 99 100 94 89 82 75 63 52 43 37 42 47 53 69 80 74 65 65 62 57 57 48 39 46 59
60 55 84 83 92 88 89 79 70 67 74 82 99 96 87 85 84 91 98 92 93 91 93 91 80 72 73 79 82 77 70 68 66 69 75 72 69 59 52 54 56 68 77
66 62 62 68 84 98 100 100 100 100 96 94 97 95 85 88 90 88 88 93 100 98 97 95 94 88 80 75 85 99 100 96 97 99 97 90 78 73 72 72 75 77 77
75 74 84 89 94 92 95 94 98 97 98 100 100 100 98 84 82 86 91 98 98 100 100 100 100 100 98 99 100 100 100 100 100 100 94 83 78 79 74 72 73 79 80
62 72 84 93 94 93 92 95 92 84 82 87 100 100 95 83 77 80 81 99 100 100 100 100 100 98 98 98 100 100 100 100 92 91 80 75 69 65 69 72 77 82 86

GFSMW_500_rhum_114.txt.gz
RH
98 94 95 95 72 52 83 89 96 96 98 95 90 91 87 85 77 62 45 38 38 38 35 28 25 22 19 90 23 63 72 52 57 51 44 46 49 61 67 67 86 83 78
96 100 72 70 52 46 93 97 96 96 97 98 98 98 98 91 75 65 55 48 47 40 36 30 28 26 84 38 62 93 73 65 56 51 51 56 73 78 80 87 80 59 60
98 97 98 60 41 66 93 92 95 96 96 97 96 93 96 94 87 73 59 43 39 36 33 30 31 82 61 53 94 92 94 85 94 87 64 75 91 93 95 96 89 71 62
97 91 89 97 54 55 88 92 97 96 97 97 96 98 97 92 78 67 43 52 47 52 50 74 77 74 69 90 92 96 92 97 96 97 96 89 96 97 84 71 58 41 32
91 95 78 99 93 83 94 94 95 96 96 97 98 97 96 96 93 92 73 51 46 54 90 86 95 95 95 95 97 97 95 95 94 96 98 96 95 95 67 55 42 42 31
98 89 85 92 97 97 96 96 98 96 97 96 96 96 96 98 97 92 86 93 70 96 75 90 97 95 97 97 95 92 83 95 96 96 96 89 73 56 64 51 36 32 29
95 96 95 97 95 96 96 96 97 95 97 96 97 96 95 96 96 96 95 94 96 98 95 96 97 98 96 96 96 96 97 96 96 97 95 78 52 43 45 43 35 25 22
93 98 96 96 97 95 94 95 95 96 95 96 97 97 97 96 97 96 95 97 94 95 95 92 96 95 97 97 96 96 97 96 95 92 76 83 45 47 32 31 25 27 26
93 100 96 94 96 95 96 96 95 94 97 93 93 96 96 95 94 96 98 97 98 93 96 99 96 93 98 97 97 96 98 95 92 73 45 56 67 50 26 24 28 14 14
92 93 100 95 94 88 95 96 96 87 93 93 96 95 97 97 94 96 95 99 98 97 96 96 97 97 97 95 96 97 95 83 70 53 49 41 37 32 26 27 24 18 15
98 87 100 90 94 95 92 86 91 95 96 97 97 94 96 93 73 95 96 96 97 96 94 97 96 99 94 86 92 94 76 60 59 54 39 39 32 32 30 27 22 18 18
97 91 85 86 95 88 98 95 93 92 89 88 89 93 89 75 74 86 78 79 76 86 90 87 77 81 74 72 84 69 62 48 54 44 41 43 31 28 28 26 23 20 22
86 98 92 84 88 98 86 76 78 76 82 80 94 96 95 88 81 80 85 94 94 96 97 90 86 88 85 90 78 69 50 54 42 37 41 38 33 28 25 28 22 25 22
71 74 94 94 85 100 95 82 82 82 87 99 99 94 89 91 89 95 96 98 96 94 94 98 99 95 91 91 80 62 56 50 37 34 35 32 27 24 22 26 25 24 23
72 69 68 77 89 74 78 95 87 94 99 99 95 99 98 98 100 99 96 95 91 90 91 96 96 87 81 78 61 52 41 41 46 53 39 28 25 27 31 28 26 25 24
100 74 70 82 88 91 86 81 86 81 84 89 94 99 99 96 95 95 96 93 95 96 95 92 93 94 93 66 52 42 50 65 40 30 29 26 28 32 30 28 27 25 28
92 94 97 87 92 99 96 85 87 84 78 85 94 95 93 95 96 91 90 88 91 97 94 92 91 83 73 61 52 55 54 46 42 40 35 31 30 32 30 28 28 31 38
87 98 99 97 100 100 93 90 100 93 88 91 88 89 91 95 91 82 85 83 84 90 92 93 82 74 70 72 60 54 48 40 39 36 36 34 33 30 29 30 28 32 33
71 84 99 100 99 99 100 100 97 95 95 97 98 99 96 97 92 92 85 88 93 90 88 79 74 72 65 65 59 51 47 44 39 38 37 35 32 29 27 23 23 35 39
57 77 74 79 94 100 95 88 88 91 91 88 94 99 98 100 95 92 93 96 96 98 97 98 94 84 70 60 56 50 42 36 36 37 38 36 30 24 22 28 44 50 54
66 78 98 93 85 85 88 93 90 85 83 84 88 92 88 88 82 78 78 83 87 90 94 92 89 84 79 70 60 43 37 28 26 24 24 24 24 28 39 53 58 62 66
82 72 69 66 80 80 80 73 68 58 57 69 75 78 85 79 82 87 96 99 95 96 92 81 71 68 67 66 60 54 42 35 33 33 38 49 46 45 67 68 62 64 65
64 67 77 72 72 72 63 63 49 38 46 54 65 70 66 64 83 88 91 94 90 86 86 88 97 97 95 97 90 86 78 70 74 81 86 74 65 68 76 79 77 70 71
30 58 54 51 51 58 74 86 85 96 91 92 88 80 72 70 77 90 100 98 94 92 90 91 95 100 94 91 100 96 85 79 78 76 72 82 90 99 100 100 90 79 78
19 32 48 55 54 53 62 69 74 86 98 98 100 100 100 96 90 95 99 98 100 100 98 100 100 100 100 100 97 100 100 100 98 92 92 92 100 100 100 94 81 74 69
12 22 34 47 57 64 74 79 84 90 90 88 84 94 96 92 93 100 100 100 100 100 100 100 100 100 100 97 95 94 97 95 96 96 98 100 100 100 84 76 68 64 63

GFSMW_500_rhum_117.txt.gz
RH
88 98 96 97 97 98 90 84 93 86 70 94 97 94 78 74 86 90 83 74 62 53 42 34 31 32 31 28 26 24 28 50 62 63 78 49 61 51 45 61 65 70 76
95 89 97 97 96 91 84 74 88 95 81 96 96 96 95 96 100 100 93 81 67 54 43 38 36 34 30 28 26 27 36 81 44 93 73 81 62 68 66 64 75 78 87
95 98 98 92 95 90 86 87 74 95 95 96 96 96 96 95 93 91 96 82 65 53 44 43 36 33 32 31 27 32 91 57 60 90 93 87 91 86 78 77 75 89 74
96 95 91 84 87 86 77 80 86 92 96 94 97 97 97 96 96 99 98 88 71 57 44 39 45 50 45 39 34 67 95 96 95 97 99 97 96 93 85 85 84 62 38
96 98 96 97 88 96 94 78 63 63 75 96 96 96 97 97 96 96 94 87 72 66 51 45 68 55 51 43 72 95 97 96 97 98 96 96 97 96 98 91 62 45 38
86 94 91 96 86 98 98 99 71 59 93 97 96 96 96 96 99 97 98 97 96 90 67 74 73 88 86 91 94 94 96 95 97 97 96 94 97 97 95 75 55 59 43
97 92 98 92 90 96 97 98 94 91 93 95 96 96 97 96 97 98 98 96 82 91 77 79 96 95 76 88 93 88 97 93 97 97 94 98 98 95 75 53 42 41 34
96 96 97 98 98 96 94 95 98 92 94 94 96 96 96 96 96 96 97 98 96 94 93 94 93 90 87 94 94 93 94 95 97 96 96 97 97 96 94 82 51 33 26
82 96 98 98 97 98 97 97 98 94 97 96 96 96 98 95 95 97 95 95 95 91 92 93 94 95 96 96 96 96 98 97 93 96 97 96 91 71 81 67 42 28 23
84 84 81 95 97 97 98 96 95 97 96 95 96 97 98 96 96 94 94 97 96 97 98 94 96 82 93 98 97 98 100 95 98 97 96 96 80 93 78 45 33 27 28
98 87 81 81 92 96 94 95 97 98 96 96 96 96 96 95 98 96 97 97 97 93 98 98 95 94 96 95 94 97 98 97 96 96 84 70 63 56 46 35 30 28 25
99 94 91 88 100 96 97 87 95 98 97 97 97 92 94 97 95 97 98 96 96 95 87 96 98 97 97 97 97 97 97 97 97 96 58 47 51 48 44 48 44 33 24
85 99 98 98 92 90 97 98 92 93 95 93 96 96 97 98 97 99 98 99 97 90 74 97 98 95 96 99 96 91 90 99 95 88 64 60 65 50 41 40 34 27 23
44 72 94 100 99 100 95 87 89 84 87 88 92 98 94 97 97 97 96 96 95 96 96 95 92 97 97 95 95 97 99 93 86 85 70 57 50 36 34 33 30 28 26
60 62 69 88 92 89 95 97 97 97 92 86 90 94 97 95 94 96 96 95 97 92 84 98 96 98 98 99 99 93 92 96 98 96 86 60 43 58 47 46 32 27 27
55 67 77 76 70 88 95 92 95 100 97 87 97 92 98 97 98 96 94 97 99 98 97 95 94 92 91 96 100 96 91 88 92 93 80 74 64 69 40 35 40 34 30
80 81 67 78 83 75 83 85 93 84 88 86 85 97 96 97 98 99 98 98 99 97 96 98 99 98 99 98 96 93 94 93 91 85 80 64 67 69 49 42 38 35 33
52 56 69 77 84 90 87 83 93 96 96 91 93 88 85 95 98 98 99 99 98 99 97 96 97 95 98 98 98 93 93 87 81 76 76 77 64 50 45 40 39 36 34
43 45 50 55 65 75 88 88 81 92 100 96 96 100 96 99 100 97 96 97 97 97 96 97 95 90 91 89 91 90 87 87 79 69 62 56 50 47 42 42 40 37 34
37 43 51 46 55 65 67 68 73 80 87 85 89 93 87 89 94 98 99 98 100 100 97 98 97 96 91 84 80 78 83 76 69 69 64 53 47 42 41 40 40 37 30
28 38 39 42 47 54 58 64 66 64 68 70 76 80 84 85 90 93 94 90 90 96 93 91 92 89 91 89 89 89 85 87 82 74 61 42 36 33 32 31 29 27 30
9 20 30 32 35 51 57 56 55 55 56 59 64 65 68 72 70 72 81 82 80 80 79 81 85 87 89 88 88 84 77 72 69 64 57 40 40 32 36 36 38 38 48
8 8 16 36 44 48 47 43 49 52 57 64 50 42 53 61 60 71 78 79 82 89 99 95 99 100 100 95 87 81 80 80 74 70 69 68 62 67 71 66 72 67 63
14 11 9 11 24 38 44 56 56 52 54 52 46 43 34 35 43 57 69 72 72 77 87 95 100 98 97 95 100 100 100 100 100 100 100 99 95 80 73 76 76 82 79
18 16 13 10 12 16 27 36 39 42 48 66 80 78 83 81 76 75 72 70 72 74 88 100 100 100 100 100 100 98 96 100 100 98 97 93 93 92 96 96 95 89 79
22 18 13 10 10 12 22 34 45 50 63 69 70 75 78 82 90 88 89 89 96 95 94 100 100 100 100 100 100 100 100 100 100 95 97 94 91 100 96 92 85 100 88

GFSMW_500_rhum_120.txt.gz
RH
93 93 64 59 97 71 93 96 90 97 96 81 58 48 62 52 90 84 71 82 79 75 67 58 50 40 29 25 24 25 24 21 22 25 36 36 68 65 63 57 66 53 59
97 96 99 99 98 97 97 86 82 98 91 97 93 92 92 87 76 100 86 76 78 79 73 65 56 42 28 27 28 27 24 22 24 34 51 87 46 86 78 77 74 74 66
97 95 95 96 97 99 90 96 96 96 94 96 98 75 96 95 96 96 94 88 87 90 82 72 60 45 37 31 29 26 24 26 31 59 80 67 67 85 93 83 80 74 71
92 95 89 96 91 92 97 93 94 98 97 93 97 92 88 98 96 97 100 96 88 93 93 83 66 48 35 27 28 26 24 38 84 80 97 75 71 99 91 88 93 88 84
98 96 95 96 91 93 88 89 95 95 93 84 84 86 81 73 90 96 97 94 92 94 97 90 70 47 36 35 30 34 69 95 90 94 95 97 94 99 93 88 91 96 100
98 97 90 96 86 81 93 100 72 62 63 66 69 90 99 88 96 97 94 94 94 90 96 92 66 57 61 73 57 55 88 93 90 97 96 94 97 99 97 92 86 98 83
84 88 95 96 91 85 91 80 94 80 72 79 65 96 88 81 95 93 96 98 96 97 95 95 82 67 53 56 91 57 92 94 96 94 95 92 96 97 97 97 96 97 78
97 92 97 90 78 86 85 97 97 97 97 94 71 96 90 90 96 95 92 94 97 98 95 96 95 92 93 91 65 53 95 97 94 96 96 93 95 96 96 95 97 94 54
98 97 97 96 98 88 97 87 96 91 97 98 97 82 92 90 96 96 96 97 97 97 96 97 97 96 96 96 97 95 94 97 95 98 97 94 94 85 97 100 98 95 76
98 94 97 97 98 99 98 99 93 91 97 98 90 78 96 95 96 96 96 96 96 96 96 95 93 94 96 96 96 96 94 94 98 96 98 97 93 99 97 99 97 96 92
98 97 95 92 91 95 94 95 99 93 99 97 100 96 96 97 96 96 96 96 94 93 94 96 96 95 96 96 97 96 97 97 96 95 97 96 98 97 97 96 96 92 66
98 96 95 89 85 73 83 91 97 96 97 97 97 97 96 97 97 97 96 97 97 97 97 98 98 98 96 96 95 94 97 98 95 97 97 98 96 97 95 94 90 77 49
98 97 100 78 69 70 86 87 95 95 97 97 97 97 97 97 97 97 96 97 97 97 97 94 96 98 98 97 97 97 97 95 96 98 97 97 98 88 90 90 84 73 58
74 83 88 90 88 84 98 79 94 94 94 95 97 96 97 97 97 96 96 97 96 97 97 96 98 99 97 93 98 98 98 96 96 88 100 99 97 96 96 95 93 78 47
48 61 56 68 87 94 88 91 83 90 93 94 96 97 97 97 97 97 98 97 98 97 98 97 97 97 98 98 98 95 98 94 94 100 100 98 99 99 99 85 70 49 62
26 29 45 51 47 68 84 86 88 89 80 84 88 91 95 93 95 94 96 97 96 94 96 97 97 97 96 96 93 87 93 88 86 98 97 97 96 97 97 95 96 86 81
35 33 26 28 42 46 63 76 85 83 87 87 86 90 94 97 92 88 87 94 95 96 94 89 93 92 92 94 96 97 97 97 96 96 97 97 98 96 97 97 90 77 74
44 39 41 33 34 27 37 58 62 73 84 88 92 92 89 92 98 97 98 98 97 97 98 98 97 93 94 98 97 97 97 94 97 96 97 96 98 98 96 91 87 83 79
21 33 37 36 43 42 34 34 38 58 64 68 79 88 89 93 90 89 90 97 98 98 99 99 98 98 99 99 98 98 99 99 99 100 95 98 98 89 88 90 79 56 50
5 6 13 26 31 29 29 42 42 41 52 56 60 76 91 98 99 100 99 84 74 89 98 98 98 99 98 98 98 98 97 96 98 98 96 89 82 74 67 64 66 66 60
8 7 6 5 10 18 25 27 29 40 46 46 50 57 64 68 75 74 78 89 94 97 95 95 96 96 98 99 98 100 99 95 96 99 98 99 96 97 99 97 91 74 50
12 11 10 8 8 8 11 14 25 30 32 35 40 42 48 56 66 72 73 74 78 86 92 97 98 100 99 98 95 96 98 99 99 100 99 99 98 93 85 75 56 42 39
16 14 14 13 11 9 9 11 13 17 24 27 27 27 26 35 46 55 63 64 65 65 67 74 85 96 97 98 99 99 100 100 100 98 91 87 78 70 69 70 65 61 55
17 17 17 18 16 14 13 10 8 9 14 21 29 34 35 51 60 66 53 46 44 43 48 61 76 86 85 90 100 100 100 100 100 100 93 89 90 99 97 95 97 94 94
21 21 22 21 20 18 19 17 13 11 10 11 23 37 45 48 51 65 68 70 70 73 64 69 73 76 79 92 99 98 100 100 99 98 97 100 100 100 98 98 98 95 98
23 25 27 26 24 22 19 17 15 14 13 12 15 20 25 35 54 60 67 78 95 100 96 97 96 95 91 93 100 100 100 100 100 100 96 98 100 100 100 100 97 96 98

GFSMW_500_rhum_123.txt.gz
RH
91 76 54 10 6 6 12 81 65 44 98 95 50 92 97 87 98 46 81 92 85 78 69 54 48 52 58 53 46 39 35 28 23 26 24 20 21 24 51 50 78 61 62
88 85 71 63 71 11 78 59 63 87 97 61 97 84 96 94 93 78 85 82 92 80 74 68 63 64 64 58 53 47 38 36 30 28 26 22 24 31 38 92 59 77 82
96 94 82 92 97 37 99 98 98 96 96 96 77 93 96 95 89 61 97 55 83 91 98 85 70 70 66 64 59 53 46 39 38 31 24 22 27 36 95 57 60 82 75
94 97 90 70 100 68 95 96 96 96 96 95 94 96 94 96 93 67 96 94 99 100 98 92 87 78 73 70 68 61 54 46 32 27 21 35 42 56 94 58 69 93 76
83 96 90 76 79 83 98 95 98 93 96 96 97 93 80 91 96 93 93 96 86 95 99 97 95 85 86 81 73 67 59 38 27 24 34 42 43 93 95 94 92 91 86
80 96 100 96 83 66 94 99 95 99 98 95 97 93 98 79 66 95 96 96 96 97 96 98 98 96 96 94 84 69 45 28 27 39 83 84 97 96 90 96 98 93 91
96 97 98 79 97 96 97 100 80 75 91 95 92 92 94 96 91 91 93 95 95 97 94 96 96 97 97 95 83 83 97 96 97 98 98 97 96 96 95 95 96 96 95
97 96 97 100 96 95 94 92 88 99 79 70 81 87 92 90 83 92 91 94 86 83 96 96 96 96 95 96 96 96 95 96 96 98 97 95 94 92 95 95 96 94 89
97 95 98 96 96 89 83 82 81 75 93 68 61 73 69 60 66 87 96 94 89 97 100 95 96 96 95 94 95 97 96 96 97 96 93 91 97 95 98 96 96 94 80
97 98 98 99 85 81 77 77 75 82 97 88 98 90 98 81 90 94 95 97 86 96 94 95 95 99 96 96 96 95 95 94 93 96 93 86 95 94 96 96 90 94 98
94 96 97 96 97 98 98 99 96 95 96 97 96 97 97 97 91 93 93 93 97 97 98 97 97 97 96 97 96 97 91 94 96 96 97 98 95 96 95 93 96 98 97
97 97 92 89 90 94 96 98 94 98 95 96 96 96 94 95 96 96 95 97 98 97 96 96 98 98 96 96 96 96 97 97 97 96 93 98 99 98 95 95 95 98 97
100 95 88 79 79 72 72 84 89 95 95 95 93 86 96 96 96 97 96 97 97 96 97 97 97 97 97 97 98 99 99 100 92 92 97 99 97 97 97 98 98 97 96
77 92 97 85 72 72 66 59 65 78 77 88 96 100 96 94 96 97 98 97 97 96 97 97 98 98 98 96 98 97 98 97 92 93 92 98 96 97 98 97 97 96 95
23 30 80 82 66 54 70 59 72 64 65 67 62 76 95 92 96 96 97 97 96 96 97 95 92 93 97 98 98 98 96 97 95 94 97 98 97 98 97 97 97 99 96
20 20 22 44 60 63 65 77 68 63 55 56 61 65 86 93 79 91 97 95 97 98 97 98 97 97 95 95 95 93 97 96 97 98 96 97 97 98 100 96 97 96 95
21 20 17 19 30 54 54 55 55 56 57 54 51 49 53 62 90 91 91 94 95 96 96 97 97 98 98 97 96 97 97 97 96 94 95 95 96 96 98 98 97 96 97
13 19 23 20 18 21 38 47 42 40 42 45 52 52 54 64 76 62 74 87 86 94 94 94 98 96 96 95 93 91 92 96 95 96 95 97 99 99 98 96 94 98 98
4 5 8 16 22 20 17 19 27 36 38 36 38 46 53 58 59 64 72 79 71 65 74 83 84 92 94 94 96 97 91 90 93 97 98 98 98 97 96 97 96 98 100
8 7 5 4 4 9 13 14 14 14 14 20 26 32 43 48 60 70 75 74 75 80 93 100 98 97 98 99 98 99 99 100 100 100 99 100 100 100 100 100 99 99 98
11 10 8 7 6 5 5 4 4 4 5 6 9 12 14 17 24 33 43 52 67 79 86 88 91 97 97 100 99 98 99 100 98 99 99 98 98 98 98 98 99 98 100
10 13 13 12 11 10 10 10 8 7 7 7 7 7 7 8 15 24 29 38 38 45 48 53 63 67 74 90 99 99 98 99 100 100 100 100 99 99 100 100 100 100 100
10 11 10 11 13 15 14 12 12 14 13 11 11 11 9 8 10 19 28 32 34 42 56 68 75 79 85 89 99 100 100 100 100 100 99 99 100 99 99 99 100 100 100
12 12 12 12 13 14 14 16 16 17 17 17 16 15 13 12 10 11 21 31 34 36 51 72 76 70 67 67 68 84 99 100 100 100 100 100 99 100 100 100 100 100 100
13 14 15 15 15 16 19 21 21 21 22 22 21 20 18 16 15 14 15 16 18 30 43 47 60 75 67 67 58 51 65 97 100 100 99 100 100 100 100 100 100 100 100
14 16 18 19 20 20 24 27 29 30 29 27 26 24 22 21 20 21 24 26 25 30 38 52 54 59 72 96 100 100 95 97 98 97 92 96 100 100 100 100 100 100 100

GFSMW_500_rhum_126.txt.gz
RH
57 35 33 41 13 4 8 14 10 8 8 12 24 28 82 52 64 57 68 84 35 57 98 77 78 58 54 56 51 50 50 46 42 39 35 30 26 24 20 20 24 24 24
61 42 42 48 44 8 5 8 8 8 15 30 32 96 79 34 93 94 96 96 34 38 56 68 78 75 70 54 51 55 59 54 48 41 41 37 30 25 22 22 23 25 65
78 65 69 71 55 46 5 5 7 22 84 88 53 94 68 48 94 74 62 76 47 57 96 60 76 80 75 70 64 64 62 60 53 49 46 39 32 29 24 22 25 36 76
94 77 88 86 73 65 74 16 10 47 73 54 52 58 53 43 71 72 96 83 88 93 98 87 72 81 90 82 76 68 70 66 61 56 53 45 35 30 27 25 30 62 87
97 93 91 90 98 86 96 100 20 83 64 51 73 96 96 96 94 85 96 97 96 95 95 96 92 94 84 88 82 79 81 77 68 61 53 45 40 30 25 29 55 70 90
98 97 97 93 93 91 99 98 44 81 77 82 93 97 97 95 97 95 96 97 96 91 87 96 95 80 97 81 89 88 89 85 80 70 58 47 38 31 52 67 75 95 97
99 97 97 96 100 100 95 91 96 92 93 98 97 96 96 97 96 97 96 96 96 94 92 82 94 96 98 96 96 95 95 94 90 88 79 76 97 97 98 100 98 96 95
97 97 96 94 86 85 98 87 88 99 100 98 92 95 96 97 96 97 97 97 95 96 94 96 96 96 95 94 95 96 95 96 96 93 100 97 97 97 98 96 97 93 96
91 99 98 99 98 98 85 91 93 92 93 96 91 92 95 96 96 96 96 95 96 95 95 94 93 93 98 97 97 95 96 95 96 98 97 98 97 97 97 96 96 94 82
97 98 97 96 98 91 91 94 93 86 71 86 91 85 86 86 92 96 93 93 84 93 98 100 93 96 94 94 97 97 96 96 97 97 96 94 95 96 96 95 96 90 77
93 96 98 98 98 93 93 81 74 77 69 74 74 63 83 91 93 97 91 74 98 100 100 94 97 95 97 96 97 96 96 97 96 96 94 96 96 85 93 88 86 88 96
95 95 96 95 95 96 99 98 83 67 84 91 88 86 98 98 99 96 91 96 99 98 95 91 96 97 97 96 93 97 95 96 96 84 91 97 96 97 98 96 89 97 96
89 92 93 88 81 92 97 94 91 95 83 96 92 97 98 98 98 97 96 97 96 96 93 94 96 96 97 95 96 96 97 97 96 97 96 98 97 97 100 96 92 100 90
82 83 78 68 66 66 64 72 75 81 76 84 90 82 94 96 96 96 96 96 96 95 92 95 96 96 97 97 97 95 97 98 97 99 99 98 98 97 99 91 94 93 100
36 46 71 65 65 62 57 48 45 59 65 63 58 66 82 94 96 96 96 91 96 97 96 96 97 93 95 98 100 98 99 97 98 98 98 95 95 98 97 96 96 98 99
24 24 32 43 51 51 42 39 35 38 50 49 56 51 48 59 64 60 63 80 93 90 96 97 97 97 97 95 97 97 98 98 98 99 99 98 97 96 98 97 99 98 98
14 17 19 25 37 45 32 29 30 31 32 38 40 42 39 39 35 38 62 82 82 79 84 97 97 97 96 98 98 97 98 97 97 96 98 98 98 97 98 100 100 98 98
8 11 12 15 19 24 37 42 37 37 40 32 32 32 33 37 39 38 43 53 56 72 96 99 95 96 95 96 96 97 98 98 98 97 98 98 98 98 97 98 98 97 97
6 4 4 5 8 12 15 19 33 45 38 36 36 33 33 32 34 39 37 34 39 53 52 47 43 65 91 96 96 96 95 94 97 97 97 98 97 96 96 96 99 99 96
6 6 6 5 4 4 4 7 9 10 12 16 19 21 24 26 27 28 31 32 32 33 38 59 72 66 69 72 96 98 99 98 98 95 98 98 97 97 98 98 95 99 100
7 7 7 6 6 5 5 4 4 4 4 5 4 4 4 4 4 4 5 5 5 7 10 12 14 23 41 58 78 92 98 100 100 100 100 98 98 97 99 98 100 100 99
9 9 9 9 8 8 7 7 7 6 7 7 7 6 6 6 6 5 4 4 4 4 4 5 7 14 26 32 37 47 45 62 93 99 99 99 98 100 99 100 100 100 100
10 11 12 12 12 11 11 11 10 9 9 9 10 9 9 8 9 9 8 8 8 6 6 6 8 11 15 26 33 34 54 75 77 85 97 98 99 100 100 100 99 99 100
11 13 14 14 14 15 16 15 15 14 14 14 14 16 16 15 15 15 14 14 16 15 13 11 14 20 21 21 30 42 58 72 80 74 73 77 97 99 100 97 97 98 100
11 13 15 16 17 18 19 19 20 20 20 21 20 21 21 21 23 24 26 24 23 21 18 17 20 26 32 29 23 35 50 61 84 79 66 69 64 75 97 100 100 100 100
15 14 14 16 18 20 22 25 27 27 26 26 28 30 32 34 36 36 35 33 31 26 23 22 23 31 38 40 33 40 66 83 100 100 88 93 90 87 100 99 100 100 100

GFSMW_500_rhum_129.txt.gz
RH
33 32 29 32 25 9 5 9 15 21 38 44 30 28 34 26 25 62 69 75 86 49 38 29 28 41 49 52 51 53 61 58 50 47 44 40 37 35 28 29 28 26 24
53 51 43 34 35 23 14 5 8 13 18 36 37 30 23 36 31 49 84 83 89 83 60 41 37 48 56 48 51 52 53 60 58 57 52 47 40 36 36 32 27 27 27
57 70 47 38 38 35 30 18 5 8 12 20 26 23 20 35 46 45 51 77 94 72 56 63 42 57 55 61 58 59 54 56 55 62 54 54 49 42 40 37 32 30 30
78 62 50 53 60 47 54 40 16 5 11 14 26 33 15 14 13 20 32 81 63 84 86 80 93 73 80 92 73 65 59 58 60 58 62 64 58 51 47 41 38 34 28
96 76 50 64 80 92 95 92 53 17 23 59 23 29 12 11 18 97 94 94 70 94 95 89 95 86 71 81 92 76 68 77 73 70 72 69 67 62 57 48 43 38 26
81 81 61 64 83 97 92 65 85 89 64 70 35 32 39 40 69 87 93 88 87 97 76 79 97 80 88 92 96 83 73 67 76 77 76 79 77 73 64 52 46 38 80
96 89 87 95 90 96 95 96 72 96 84 79 58 76 52 73 63 55 52 83 82 91 74 95 91 97 96 96 94 90 76 90 96 95 91 89 86 84 71 88 86 93 94
97 96 95 98 98 97 98 98 95 76 95 48 82 99 93 68 96 96 96 97 96 96 96 97 96 96 96 93 96 98 96 97 92 96 95 96 96 98 97 95 95 96 97
97 98 97 98 78 76 78 95 100 97 72 93 99 83 72 65 96 96 91 95 96 96 97 97 96 96 97 97 94 87 97 97 95 89 92 92 97 95 96 96 96 98 95
97 98 98 98 97 99 98 97 95 98 60 90 99 96 78 88 98 96 99 94 96 96 96 96 97 96 96 97 95 96 96 88 77 93 86 97 97 96 96 96 94 95 95
96 91 98 97 95 98 97 78 79 87 98 93 87 88 93 80 87 95 96 96 96 96 97 96 96 96 96 93 92 92 99 97 90 93 98 96 95 97 100 98 96 96 98
95 95 95 98 96 98 97 97 96 96 88 84 86 80 73 90 88 89 88 97 94 95 96 95 93 85 86 96 98 95 100 95 95 95 96 97 96 96 97 97 97 96 97
88 76 74 83 94 96 94 97 90 83 100 86 83 83 92 92 96 96 96 98 96 93 92 96 99 95 94 94 96 97 97 96 96 97 97 97 96 97 98 96 97 98 94
80 74 65 57 72 75 95 89 89 80 85 85 76 88 96 96 98 97 95 98 95 93 98 97 94 94 96 95 92 96 97 97 97 96 97 98 97 96 95 93 97 98 97
55 60 59 50 56 63 57 63 71 68 68 68 70 84 80 86 98 96 96 96 96 96 96 93 90 89 96 96 96 97 97 98 98 97 97 98 98 96 96 98 98 98 96
43 51 43 53 48 46 47 48 47 47 53 59 56 55 55 53 65 85 87 88 93 82 66 86 85 89 97 96 96 97 97 96 95 96 96 96 97 98 96 98 98 98 96
14 19 30 31 35 37 35 33 35 37 38 48 51 43 43 50 42 40 43 48 45 71 73 72 73 60 58 53 89 94 95 95 96 97 97 98 97 97 97 98 98 97 96
3 5 9 15 22 26 35 38 35 38 37 34 35 37 35 34 34 33 32 32 32 33 34 33 35 42 50 64 60 66 94 94 96 96 95 97 98 98 97 96 97 97 98
7 5 4 4 5 7 12 22 36 39 38 38 37 34 36 35 31 28 25 22 24 25 24 25 26 26 29 32 32 29 43 34 37 55 84 97 97 97 97 97 98 97 97
6 6 6 5 5 4 4 5 7 12 19 23 20 14 12 12 6 4 3 3 4 5 4 4 4 4 4 4 4 9 17 26 36 58 64 78 97 96 97 97 97 98 98
9 8 8 7 7 6 6 6 6 5 5 4 4 5 5 4 4 4 5 5 4 6 6 5 5 5 5 5 6 5 5 4 5 6 8 16 28 71 99 98 99 100 100
10 10 10 9 9 9 8 8 7 7 7 6 6 7 7 7 7 8 8 7 7 7 7 7 7 7 7 7 8 8 8 6 6 11 16 14 16 27 56 72 97 99 100
11 10 11 12 12 13 13 12 13 13 13 13 13 13 12 12 12 13 13 12 12 12 11 11 11 10 10 10 10 11 10 8 9 15 27 24 21 23 31 78 97 100 100
10 11 14 13 12 13 14 15 16 17 18 18 19 19 19 19 20 20 19 19 19 19 18 17 16 17 20 18 16 15 13 12 15 21 29 32 25 28 46 70 84 86 100
13 12 12 14 16 18 19 20 21 21 22 23 23 24 24 24 25 26 27 28 28 28 27 25 25 25 27 27 24 19 16 19 26 33 37 36 32 32 45 69 83 83 84
19 19 18 17 16 16 17 18 20 25 29 30 31 33 35 38 39 37 35 34 37 40 40 36 34 35 35 32 27 21 20 26 36 40 39 39 38 47 74 80 93 100 94